Corydon, KY

5:14 AM CST on February 21, 2017 (GMT -0600)
Henderson City-County

Weather History for KEHR - May, 2013

Change the Weather History Date:

Sunday, May 5, 2013

  Actual Average Record
Temperature  
Mean Temperature 52 °F -  
Max Temperature 57 °F 75 °F 92 °F (1952)
Min Temperature 46 °F 51 °F 34 °F (1940)
Degree Days  
Heating Degree Days 14    
Growing Degree Days 2 (Base 50)    
Moisture  
Dew Point 43 °F    
Average Humidity 70    
Maximum Humidity 82    
Minimum Humidity 63    
Precipitation  
Precipitation 0.38 in - - ()
Sea Level Pressure  
Sea Level Pressure 29.87 in    
Wind  
Wind Speed 6 mph (NE)    
Max Wind Speed 14 mph    
Max Gust Speed 16 mph    
Visibility 10 miles    
Events      
Averages and records for this station are not official NWS values.
T = Trace of Precipitation, MM = Missing Value Source: NWS Daily Summary

Daily Weather History Graph

Daily Weather History Graph

Search for Another Location

Airport or City:

Trip Planner

Search our weather history database for the weather conditions in past years. The results will help you decide how hot, cold, wet, or windy it might be!

Date:

Astronomy

May. 05, 2013 Rise Set
Actual Time 5:50 AM CDT 7:45 PM CDT
Civil Twilight 5:21 AM CDT 8:13 PM CDT
Nautical Twilight 4:46 AM CDT 8:48 PM CDT
Astronomical Twilight 4:09 AM CDT 9:26 PM CDT
Moon 3:15 AM CDT (5/5) 3:48 PM CDT (5/5)
Length of Visible Light 14h 52m
Length of Day
13h 54m
Waning Crescent, 18% of the Moon is Illuminated
May 5
Waning Crescent
May 9
New
May 17
First Quarter
May 24
Full
May 31
Last Quarter

Hourly Weather History & Observations

Time (CDT) Temp. Windchill Dew Point Humidity Pressure Visibility Wind Dir Wind Speed Gust Speed Precip Events Conditions
12:15 AM 46.4 °F 44.3 °F 35.6 °F 66% 29.97 in 10.0 mi NNW 4.6 mph - N/A   Overcast
12:35 AM 46.4 °F 44.3 °F 37.4 °F 71% 29.96 in 10.0 mi NNW 4.6 mph - N/A   Overcast
12:55 AM 46.4 °F 45.2 °F 37.4 °F 71% 29.96 in 10.0 mi North 3.5 mph - N/A   Overcast
1:15 AM 46.4 °F 43.5 °F 37.4 °F 71% 29.94 in 10.0 mi North 5.8 mph - N/A   Overcast
1:35 AM 46.4 °F 44.3 °F 37.4 °F 71% 29.93 in 10.0 mi NNW 4.6 mph - N/A   Mostly Cloudy
1:55 AM 46.4 °F 43.5 °F 37.4 °F 71% 29.93 in 10.0 mi NNW 5.8 mph - 0.01 in   Overcast
2:15 AM 46.4 °F 45.2 °F 37.4 °F 71% 29.93 in 10.0 mi NNW 3.5 mph - N/A   Overcast
2:35 AM 46.4 °F 43.5 °F 37.4 °F 71% 29.91 in 10.0 mi NW 5.8 mph - 0.01 in   Overcast
2:55 AM 46.4 °F 44.3 °F 37.4 °F 71% 29.91 in 10.0 mi NNW 4.6 mph - 0.03 in   Overcast
3:15 AM 46.4 °F 43.5 °F 37.4 °F 71% 29.90 in 10.0 mi NW 5.8 mph - N/A   Overcast
3:35 AM 48.2 °F - 37.4 °F 66% 29.89 in 10.0 mi NW 8.1 mph - 0.01 in   Overcast
3:55 AM 48.2 °F - 37.4 °F 66% 29.89 in 10.0 mi North 3.5 mph - 0.04 in   Overcast
4:15 AM 48.2 °F - 37.4 °F 66% 29.88 in 10.0 mi NW 8.1 mph - 0.02 in   Overcast
4:35 AM 48.2 °F - 39.2 °F 71% 29.88 in 10.0 mi NW 8.1 mph - 0.04 in   Overcast
4:55 AM 48.2 °F - 39.2 °F 71% 29.87 in 7.0 mi North 4.6 mph - 0.05 in   Overcast
5:15 AM 48.2 °F - 39.2 °F 71% 29.87 in 9.0 mi West 6.9 mph - 0.02 in   Overcast
5:35 AM 48.2 °F - 39.2 °F 71% 29.87 in 6.0 mi NW 8.1 mph - 0.04 in   Overcast
5:55 AM 48.2 °F - 39.2 °F 71% 29.87 in 8.0 mi NW 4.6 mph - 0.04 in   Overcast
6:15 AM 48.2 °F - 39.2 °F 71% 29.87 in 5.0 mi Calm Calm - 0.02 in   Overcast
6:35 AM 51.8 °F - 42.8 °F 71% 29.87 in 5.0 mi NNE 6.9 mph - 0.06 in   Overcast
6:55 AM 51.8 °F - 42.8 °F 71% 29.87 in 7.0 mi NNE 8.1 mph - 0.08 in   Overcast
7:15 AM 51.8 °F - 44.6 °F 76% 29.87 in 8.0 mi ENE 5.8 mph - 0.02 in   Overcast
7:35 AM 51.8 °F - 42.8 °F 71% 29.87 in 9.0 mi ESE 6.9 mph - 0.05 in   Overcast
7:55 AM 51.8 °F - 42.8 °F 71% 29.86 in 10.0 mi East 8.1 mph - 0.08 in   Overcast
8:15 AM 51.8 °F - 42.8 °F 71% 29.86 in 10.0 mi ENE 3.5 mph - 0.02 in   Overcast
8:35 AM 53.6 °F - 44.6 °F 72% 29.86 in 10.0 mi ENE 9.2 mph - 0.02 in   Overcast
8:55 AM 53.6 °F - 44.6 °F 72% 29.87 in 10.0 mi ENE 12.7 mph - 0.02 in   Overcast
9:15 AM 53.6 °F - 44.6 °F 72% 29.86 in 7.0 mi East 12.7 mph - 0.01 in   Overcast
9:35 AM 53.6 °F - 44.6 °F 72% 29.86 in 5.0 mi East 9.2 mph - 0.02 in   Overcast
9:55 AM 53.6 °F - 44.6 °F 72% 29.86 in 10.0 mi East 11.5 mph 16.1 mph 0.02 in   Mostly Cloudy
10:15 AM 53.6 °F - 44.6 °F 72% 29.87 in 10.0 mi East 9.2 mph - N/A   Overcast
10:35 AM 53.6 °F - 44.6 °F 72% 29.87 in 10.0 mi East 9.2 mph - N/A   Overcast
10:55 AM 55.4 °F - 44.6 °F 67% 29.87 in 10.0 mi East 10.4 mph - N/A   Overcast
11:15 AM 55.4 °F - 44.6 °F 67% 29.87 in 10.0 mi ESE 8.1 mph - N/A   Overcast
11:35 AM 55.4 °F - 44.6 °F 67% 29.87 in 10.0 mi East 9.2 mph - 0.01 in   Overcast
11:55 AM 55.4 °F - 44.6 °F 67% 29.86 in 10.0 mi East 8.1 mph - 0.01 in   Overcast
12:15 PM 55.4 °F - 44.6 °F 67% 29.86 in 10.0 mi East 5.8 mph - N/A   Overcast
12:35 PM 55.4 °F - 44.6 °F 67% 29.86 in 9.0 mi ESE 4.6 mph - N/A   Overcast
1:15 PM 55.4 °F - 44.6 °F 67% 29.86 in 10.0 mi East 5.8 mph - N/A   Overcast
1:35 PM 55.4 °F - 46.4 °F 72% 29.86 in 10.0 mi East 6.9 mph - N/A   Overcast
1:55 PM 51.8 °F - 46.4 °F 82% 29.86 in 10.0 mi ENE 6.9 mph - N/A   Overcast
2:15 PM 51.8 °F - 46.4 °F 82% 29.86 in 10.0 mi NE 5.8 mph - N/A   Overcast
2:35 PM 51.8 °F - 46.4 °F 82% 29.85 in 10.0 mi NNE 5.8 mph - N/A   Overcast
2:55 PM 55.4 °F - 46.4 °F 72% 29.85 in 10.0 mi NE 8.1 mph - N/A   Mostly Cloudy
3:15 PM 53.6 °F - 46.4 °F 77% 29.85 in 10.0 mi NNE 6.9 mph - N/A   Mostly Cloudy
3:35 PM 55.4 °F - 46.4 °F 72% 29.84 in 10.0 mi NE 4.6 mph - N/A   Overcast
3:55 PM 57.2 °F - 46.4 °F 67% 29.84 in 10.0 mi NNE 4.6 mph - N/A   Overcast
4:15 PM 57.2 °F - 46.4 °F 67% 29.84 in 9.0 mi North 4.6 mph - N/A   Overcast
4:35 PM 57.2 °F - 46.4 °F 67% 29.84 in 10.0 mi NNE 6.9 mph - N/A   Mostly Cloudy
4:55 PM 57.2 °F - 46.4 °F 67% 29.84 in 10.0 mi NE 8.1 mph - N/A   Overcast
5:15 PM 57.2 °F - 46.4 °F 67% 29.84 in 10.0 mi NE 4.6 mph - N/A   Overcast
5:35 PM 57.2 °F - 46.4 °F 67% 29.84 in 10.0 mi NE 5.8 mph - N/A   Overcast
5:55 PM 57.2 °F - 46.4 °F 67% 29.84 in 10.0 mi North 5.8 mph - N/A   Overcast
6:15 PM 55.4 °F - 46.4 °F 72% 29.85 in 10.0 mi North 6.9 mph - N/A   Overcast
6:35 PM 55.4 °F - 46.4 °F 72% 29.85 in 10.0 mi North 3.5 mph - N/A   Overcast
7:15 PM 55.4 °F - 46.4 °F 72% 29.86 in 10.0 mi NE 6.9 mph - N/A   Overcast
7:35 PM 55.4 °F - 46.4 °F 72% 29.86 in 10.0 mi NE 5.8 mph - N/A   Overcast
7:55 PM 55.4 °F - 44.6 °F 67% 29.86 in 10.0 mi ENE 10.4 mph - N/A   Overcast
8:15 PM 55.4 °F - 44.6 °F 67% 29.87 in 10.0 mi NE 12.7 mph - N/A   Overcast
8:35 PM 55.4 °F - 44.6 °F 67% 29.87 in 10.0 mi NE 9.2 mph - N/A   Overcast
8:55 PM 55.4 °F - 44.6 °F 67% 29.87 in 10.0 mi NE 9.2 mph - N/A   Overcast
9:35 PM 55.4 °F - 44.6 °F 67% 29.87 in 10.0 mi ENE 10.4 mph - N/A   Mostly Cloudy
9:55 PM 55.4 °F - 42.8 °F 63% 29.88 in 10.0 mi ENE 13.8 mph - N/A   Overcast
10:15 PM 53.6 °F - 42.8 °F 67% 29.88 in 10.0 mi ENE 12.7 mph - N/A   Overcast
10:35 PM 53.6 °F - 42.8 °F 67% 29.87 in 10.0 mi NE 11.5 mph - N/A   Overcast
10:55 PM 53.6 °F - 42.8 °F 67% 29.86 in 10.0 mi NE 10.4 mph - N/A   Overcast
11:15 PM 53.6 °F - 42.8 °F 67% 29.86 in 10.0 mi NE 10.4 mph - N/A   Overcast
11:35 PM 51.8 °F - 42.8 °F 71% 29.86 in 10.0 mi NE 10.4 mph - N/A   Overcast
11:55 PM 51.8 °F - 42.8 °F 71% 29.85 in 10.0 mi NE 8.1 mph - N/A   Overcast